Temp_Advection
nan nan nan nan nan nan nan nan nan nan nan nan nan nan nan nan nan nan nan nan nan nan nan nan nan nan nan nan nan nan nan nan nan nan nan nan nan nan nan nan nan nan nan nan nan nan nan nan nan
nan 1 -0 -1 -0 -1 -1 -1 0 -0 1 -0 0 0 -0 -0 0 0 0 -0 0 0 0 1 0 0 0 0 0 0 0 0 0 -0 -0 0 0 -0 0 0 0 0 -0 0 0 0 0 0 nan
nan 0 -0 -0 -0 -1 -2 -1 0 1 1 -0 0 -0 -0 0 0 0 0 -0 0 0 1 0 0 0 0 0 0 0 0 0 0 0 -0 -0 -0 0 0 0 0 0 -0 -0 -0 0 0 0 nan
nan -0 -0 -0 -1 -1 -2 0 0 -0 0 0 -0 -0 0 0 0 0 -0 -0 0 1 0 -0 0 1 0 0 0 0 0 0 0 0 -0 -0 -0 0 0 0 0 0 0 -0 -0 0 0 0 nan
nan -1 -1 -1 -2 -1 -0 -0 1 0 0 0 0 -1 0 0 -0 -0 0 0 0 0 -0 0 0 0 0 0 0 0 0 0 0 0 0 0 0 0 0 0 0 0 0 0 0 -0 0 0 nan
nan -0 -1 -1 -1 -1 -0 1 1 -0 0 0 -0 -0 0 0 0 -0 -0 0 0 0 0 -0 1 1 0 0 1 1 1 1 0 0 0 0 0 0 0 0 0 0 0 0 0 0 -0 0 nan
nan -1 -1 -2 -1 0 1 1 -0 -0 -0 -0 0 0 0 0 0 -0 0 0 0 0 1 1 1 2 1 1 1 1 1 1 0 0 0 0 0 0 0 0 0 0 0 0 0 0 -0 0 nan
nan -0 -0 -1 -0 -0 0 1 0 -0 -0 1 1 -0 0 0 0 -0 0 1 1 1 1 1 1 1 1 1 1 1 1 0 0 0 0 0 0 0 0 0 0 -0 0 0 0 0 0 0 nan
nan -0 -1 -1 -1 -0 0 0 0 0 -0 0 0 0 0 0 0 1 1 2 2 1 1 2 1 0 1 1 1 1 0 0 0 0 0 0 0 1 0 0 0 0 0 -0 0 0 0 0 nan
nan -0 -4 -2 -0 0 0 1 0 0 0 1 0 1 1 0 0 0 1 1 1 1 1 1 1 0 0 0 0 0 0 0 0 0 0 1 0 0 -0 0 0 0 0 0 0 0 0 1 nan
nan -2 -1 0 -0 -0 0 0 -0 -0 -0 1 1 1 1 0 1 1 1 0 0 0 0 0 1 1 0 0 -0 -0 -0 -0 0 0 0 0 -0 -0 0 1 0 0 0 0 0 0 0 0 nan
nan -1 0 -1 -1 0 0 -0 -0 -0 1 1 0 0 0 1 1 1 0 0 0 0 0 1 0 0 0 0 0 0 -0 -0 0 -0 -0 0 -0 0 0 -0 -0 0 0 0 0 0 -0 -0 nan
nan -0 0 1 1 0 -0 -0 -0 -0 2 1 0 1 1 1 1 0 0 0 0 0 0 0 0 0 0 0 0 1 0 0 0 -0 -0 -0 -0 0 -0 -0 0 0 0 0 0 0 0 -0 nan
nan -0 -0 -0 -1 -0 0 0 -0 1 2 1 0 1 1 1 1 0 0 0 0 0 0 0 1 0 0 0 0 0 0 0 0 0 0 0 0 0 -0 0 0 0 0 0 0 0 0 0 nan
nan -0 -0 -0 -0 -0 0 0 1 2 0 0 -0 0 0 0 0 1 0 0 0 0 0 1 1 0 0 0 0 0 0 0 0 0 0 0 0 -0 0 0 0 0 0 0 0 0 1 1 nan
nan 0 -1 -1 -0 0 1 1 -1 0 0 -0 -0 -0 0 0 -0 0 0 0 0 0 1 1 1 1 1 0 0 0 0 0 0 0 0 0 0 0 0 0 0 0 0 0 0 0 1 1 nan
nan -0 -1 -1 0 0 0 1 -0 0 0 -0 -0 -0 -0 0 -0 -0 -0 -0 -0 -0 0 0 1 1 1 1 1 1 1 1 1 0 0 0 0 0 0 0 0 0 0 0 0 0 0 0 nan
nan -0 -0 -1 -0 0 0 1 -0 -0 0 -0 -0 -0 -1 -1 -1 -1 -0 -0 -0 -0 -0 0 1 0 1 1 1 1 0 0 0 1 0 0 -0 0 0 0 0 0 0 1 0 0 0 1 nan
nan -0 -1 -1 -0 0 -0 0 -3 -1 -1 -1 -1 -1 -1 -1 -1 -1 -1 -1 -0 0 -0 0 0 1 1 1 1 1 1 1 1 1 0 0 0 0 0 0 0 0 1 0 0 0 0 -0 nan
nan -0 -1 -1 0 0 0 -1 -3 -2 -3 -3 -2 -2 -2 -1 -1 -1 -1 -1 -1 -1 0 0 0 0 0 1 0 1 1 1 1 0 0 0 0 0 0 0 0 1 0 -0 0 0 0 0 nan
nan -0 -0 -1 -1 -0 0 0 -1 -1 -1 -1 -2 -1 -1 -1 -1 -2 -1 -1 -1 -1 -1 0 1 0 0 1 1 0 0 1 1 0 1 0 0 1 0 0 0 1 0 0 0 0 0 0 nan
nan -0 -1 -1 -1 -0 -0 1 -2 -1 -1 -1 -1 -1 -1 -1 -1 -1 -1 -1 -1 -1 -1 -0 -0 1 1 0 2 1 0 0 0 1 0 0 0 1 0 0 0 0 1 0 0 0 0 0 nan
nan -1 -0 -0 -0 -1 0 1 -1 -1 -1 -1 -0 -1 -1 -1 -0 -0 -1 -1 -0 -0 -0 -0 -0 -0 1 1 1 1 1 0 0 0 0 0 0 0 0 0 0 0 0 0 -0 1 0 0 nan
nan -1 -0 -0 0 -0 -1 4 -2 -1 -1 -1 -1 -1 -0 -0 -0 0 -0 -0 -0 -0 -0 -0 -0 -0 0 2 2 2 1 1 1 1 1 0 0 0 0 0 1 1 1 -1 1 1 -0 1 nan
nan -1 -0 0 -0 0 -2 -2 -1 -0 -0 -0 -1 -0 -0 -0 -0 -0 -0 -0 -0 -0 -0 -0 -0 -0 -0 0 2 2 2 2 1 1 1 1 1 1 1 1 1 1 0 1 2 -0 1 1 nan
nan -1 -1 -1 -0 -1 -3 -1 0 -0 -0 -0 -0 -0 -0 -0 -0 0 -0 -0 0 0 0 0 0 0 0 0 0 1 2 2 1 1 1 1 1 1 1 1 1 1 1 1 1 1 1 0 nan
nan -0 -0 -0 -0 0 -1 -0 0 -0 -0 0 0 0 -0 -0 -0 0 0 0 0 0 0 0 0 0 0 0 0 0 1 1 1 2 1 1 1 1 1 1 1 1 1 1 1 1 1 1 nan
nan -1 0 0 -1 0 -1 -0 -0 -0 -0 -0 -0 0 0 0 0 0 -0 0 0 0 0 0 0 0 0 0 0 0 0 0 1 1 1 1 1 1 1 1 1 1 1 1 1 0 1 1 nan
nan -0 -0 -0 -0 -1 -0 -1 -0 0 0 -0 -0 0 0 0 0 0 -0 -0 0 0 0 0 0 0 0 0 0 0 0 1 1 0 1 1 1 1 1 1 1 1 1 1 1 1 1 1 nan
nan nan nan nan nan nan nan nan nan nan nan nan nan nan nan nan nan nan nan nan nan nan nan nan nan nan nan nan nan nan nan nan nan nan nan nan nan nan nan nan nan nan nan nan nan nan nan nan nan
Wind_Speed
20 19 14 7 7 7 22 19 21 7 8 16 7 10 12 16 9 1 2 6 12 12 21 27 30 28 27 26 26 25 24 24 23 22 20 19 19 18 19 21 22 21 20 20 19 17 17 17 17
18 20 14 8 10 16 18 23 26 15 16 4 12 12 9 15 22 16 15 13 12 11 22 28 30 29 28 27 26 24 24 24 24 23 21 20 18 18 18 21 22 21 20 20 18 18 18 19 19
18 18 11 6 14 22 21 20 18 21 16 14 6 6 12 7 11 11 11 14 14 13 23 27 30 29 28 26 25 24 24 24 25 24 22 21 19 18 18 21 22 21 21 24 22 20 18 19 19
20 12 8 11 26 23 33 17 5 12 18 23 22 10 11 18 8 8 15 19 17 13 22 25 27 27 27 26 25 26 24 24 25 25 23 21 19 18 19 21 22 22 22 23 23 22 20 18 19
19 10 14 22 31 28 20 25 28 11 8 10 20 22 19 7 21 19 9 9 10 15 21 24 26 27 27 27 27 26 25 24 25 25 24 22 21 19 19 21 22 23 22 22 24 28 27 20 19
13 9 15 25 31 24 25 28 18 21 24 9 8 21 16 14 12 12 24 18 8 15 22 24 28 28 27 26 27 27 26 26 25 25 23 22 21 20 19 20 21 22 22 23 23 28 28 27 21
21 13 27 31 26 22 23 24 23 23 22 24 16 11 16 16 14 16 13 18 19 17 22 26 28 29 28 28 28 28 25 24 24 24 24 23 21 20 19 20 21 22 22 23 25 25 27 28 28
22 14 26 28 25 31 15 22 20 24 28 30 22 10 18 23 20 20 20 22 19 18 22 27 27 28 28 29 28 28 25 23 23 23 23 22 21 21 19 20 21 22 23 24 23 27 25 24 29
19 12 23 27 25 21 10 17 23 17 20 16 13 20 15 18 20 20 22 21 21 20 22 26 29 29 26 24 28 26 26 26 24 23 23 23 22 22 21 22 21 22 23 23 23 26 23 26 26
8 13 31 23 18 19 24 22 24 20 17 18 15 12 15 12 11 7 9 9 13 15 20 21 23 30 27 27 25 27 25 26 26 25 24 24 21 20 21 23 22 22 22 23 23 22 24 28 29
20 32 25 20 13 23 21 14 16 18 21 18 15 6 12 12 12 10 9 13 17 20 23 25 27 27 26 28 26 28 25 23 22 23 22 21 21 23 22 23 24 24 23 24 24 24 25 28 30
15 25 24 30 31 25 19 20 16 14 15 10 9 10 8 9 11 12 9 11 14 19 23 26 30 32 31 29 28 28 28 27 26 23 23 24 27 24 18 20 24 25 26 26 26 26 25 28 32
23 24 30 27 26 30 31 25 26 28 24 13 7 6 7 8 10 11 10 12 15 18 21 26 29 32 35 35 33 32 28 27 26 28 26 22 25 25 24 24 25 24 25 26 27 27 27 28 31
6 12 17 19 21 23 16 18 22 16 10 6 4 5 5 6 8 9 10 12 13 16 17 21 26 33 33 35 35 33 31 30 27 26 27 26 23 24 24 23 24 25 25 25 26 27 28 29 31
11 11 12 15 17 21 20 22 24 14 9 9 7 6 5 4 4 7 7 9 11 13 16 19 22 27 26 39 35 32 32 30 29 27 27 25 24 23 23 23 23 24 24 25 27 27 27 28 30
17 14 15 9 11 16 13 13 6 4 8 8 7 7 4 2 1 2 5 7 8 11 15 15 14 28 32 26 36 37 30 33 31 28 26 25 24 23 23 22 22 22 23 24 25 25 27 29 31
10 14 18 19 9 11 11 9 4 2 5 6 4 4 6 3 2 4 2 5 7 7 11 14 14 19 19 28 30 34 26 36 31 26 28 25 24 23 22 21 21 22 23 23 23 22 24 30 39
16 15 16 19 8 8 16 18 4 5 2 4 6 6 8 10 10 7 5 2 3 5 7 11 13 17 20 21 26 31 29 29 25 34 29 27 25 25 23 21 19 20 22 23 22 21 16 24 33
13 16 20 21 17 16 18 15 14 9 10 8 10 11 12 14 12 11 10 7 2 2 4 6 11 12 15 18 21 27 26 28 24 29 28 25 28 27 24 22 21 20 20 22 22 24 23 27 33
11 16 19 19 15 9 5 5 15 17 19 22 19 19 18 17 17 14 14 12 9 5 2 4 4 6 13 17 16 20 23 24 26 27 28 25 27 31 26 27 24 23 23 27 26 29 29 27 29
8 10 11 14 15 14 14 8 7 13 21 24 25 20 21 21 21 20 17 16 13 10 6 0 6 6 9 12 18 15 17 21 24 19 21 24 30 29 27 28 28 30 27 30 30 32 33 31 32
11 7 13 15 10 7 4 5 8 9 15 18 23 24 23 23 21 20 19 16 16 13 10 6 2 7 10 11 19 21 16 18 15 19 21 17 18 22 25 24 27 35 34 32 29 31 32 31 35
5 18 18 18 14 12 14 7 6 11 13 18 18 22 22 21 21 21 20 18 16 13 11 9 7 2 6 10 11 17 19 15 14 18 18 13 21 22 22 22 26 24 29 32 31 31 32 31 32
19 12 16 13 9 8 15 15 6 9 13 14 17 20 21 21 22 21 18 16 15 13 10 9 7 5 4 11 14 17 18 20 18 14 12 15 22 17 20 22 25 25 26 29 26 33 36 35 32
22 13 3 5 6 3 11 7 9 10 10 11 13 18 20 21 22 25 24 23 19 17 14 12 10 8 6 5 11 17 18 18 17 17 16 15 15 15 17 19 20 22 23 24 27 30 29 32 32
11 8 4 5 4 5 13 6 5 8 11 13 13 15 18 21 22 24 24 24 23 20 18 15 14 12 9 8 9 12 15 18 16 15 15 15 15 15 16 17 18 20 20 22 25 28 30 27 31
9 6 11 5 7 5 5 5 7 14 13 15 17 18 19 20 22 23 23 23 23 23 22 19 17 16 13 13 11 11 12 13 15 16 15 15 15 16 15 16 19 20 22 22 23 23 24 25 27
10 8 1 1 4 2 5 5 8 16 15 13 15 18 18 18 19 22 22 21 21 21 21 20 20 20 18 16 15 14 13 12 13 14 16 16 15 16 16 16 17 20 21 22 22 23 23 25 25
13 6 3 2 3 4 4 4 10 11 12 12 14 16 15 17 17 20 20 19 18 18 19 20 21 21 21 19 18 16 16 15 15 14 14 16 16 16 16 17 17 18 21 21 20 22 21 20 20
19 14 3 3 4 4 3 4 11 11 11 14 15 16 14 14 17 20 20 19 18 18 18 18 19 20 21 20 19 19 18 18 17 16 16 16 16 17 17 16 18 18 18 20 22 22 20 19 19
Wind_Direction
208 195 176 175 225 239 245 235 251 227 228 234 242 193 219 231 207 229 183 307 314 244 209 194 195 193 190 192 190 192 192 188 191 189 188 184 182 183 179 180 177 175 174 168 166 163 164 159 151
188 183 179 213 235 229 239 243 244 243 235 340 217 230 238 244 243 268 287 293 314 237 205 194 193 191 191 191 191 192 190 189 190 191 190 189 189 185 184 184 180 178 176 167 166 163 164 162 160
180 181 188 222 232 232 247 242 243 250 240 235 235 246 249 236 246 229 256 288 304 248 204 195 192 189 193 190 191 193 191 190 189 192 194 193 194 192 190 186 184 181 179 175 172 163 170 167 165
173 186 235 232 231 225 239 250 321 265 240 238 242 261 231 237 245 238 251 267 276 237 192 195 193 192 193 190 193 194 193 192 192 192 196 199 199 200 195 190 190 188 185 183 180 174 182 178 173
179 198 231 233 240 237 235 244 255 248 246 245 218 235 237 246 235 242 249 257 250 222 198 197 194 195 195 193 194 195 193 192 194 195 197 197 199 200 198 196 194 193 192 192 194 173 169 182 181
191 227 234 236 235 234 238 242 254 241 249 230 221 238 249 247 247 241 247 260 251 229 222 203 198 196 196 197 197 198 195 195 196 197 199 199 199 196 196 199 197 197 195 193 192 180 180 178 182
225 216 242 252 253 247 230 243 247 248 245 236 243 243 236 252 240 227 230 250 257 243 228 218 202 199 198 198 199 198 196 197 199 200 203 201 202 199 197 199 200 198 198 199 191 192 185 184 183
217 242 253 246 247 252 234 240 236 239 253 253 243 238 242 248 250 248 252 249 241 236 229 217 205 201 199 199 200 200 196 198 200 204 204 204 204 201 197 198 200 201 203 203 206 193 193 185 186
212 241 251 247 245 239 224 238 250 252 253 242 223 237 242 241 253 250 243 232 231 231 226 215 208 201 196 198 200 198 195 197 201 206 209 205 204 203 201 199 201 199 204 208 211 204 214 192 190
204 225 249 254 260 258 248 247 253 254 245 241 227 221 224 241 263 249 229 223 221 223 216 212 204 207 193 194 199 197 198 198 199 204 208 208 204 202 203 202 201 203 204 206 212 211 207 202 198
221 237 241 252 283 262 265 264 263 256 251 251 252 217 229 234 252 247 216 205 206 206 209 203 198 209 202 204 195 196 198 197 200 202 202 203 204 207 206 203 202 202 204 207 207 212 210 209 204
250 247 255 266 266 258 259 267 260 258 272 274 256 249 226 211 225 229 224 217 207 210 212 207 200 204 200 204 204 198 200 200 200 201 200 202 210 209 204 204 205 207 206 207 208 212 212 209 212
244 253 261 260 248 255 261 263 265 265 260 254 252 220 210 201 205 219 215 216 221 212 212 211 206 202 204 201 203 209 207 205 206 207 207 206 209 211 213 211 211 211 209 210 210 211 213 214 215
301 291 284 283 289 277 250 252 266 249 208 191 195 181 186 193 195 198 202 210 209 213 202 198 204 208 204 207 206 207 212 212 215 216 217 217 214 213 214 215 214 214 215 216 218 219 219 222 223
248 271 275 269 259 249 258 258 252 262 170 167 139 119 157 159 168 201 216 208 215 212 204 205 191 208 195 206 208 207 213 214 212 214 219 216 217 219 216 216 216 217 219 220 222 223 224 225 227
266 271 273 267 258 252 240 257 38 148 157 144 134 121 126 121 9 87 226 244 232 214 211 200 194 195 216 205 200 208 211 208 213 215 218 218 216 218 219 217 218 218 219 220 223 225 227 230 230
229 262 266 274 256 269 227 272 86 129 173 146 116 85 69 82 35 342 30 240 251 241 216 210 198 198 188 196 211 204 199 209 208 215 218 214 215 217 217 218 223 222 222 221 222 225 229 234 230
282 275 279 277 279 280 288 278 157 85 114 102 92 67 38 26 13 357 337 290 238 240 230 210 202 211 186 192 194 206 208 207 204 215 224 222 222 222 219 220 221 222 214 216 209 215 195 215 217
282 274 267 271 288 292 273 288 24 64 57 59 54 42 32 19 356 352 349 343 296 214 241 206 204 191 191 184 187 194 200 209 211 222 211 209 212 230 226 219 219 219 216 209 206 195 179 172 176
284 276 272 276 275 320 307 70 67 59 51 48 40 29 17 5 358 355 351 351 350 349 176 194 191 211 197 180 186 192 200 202 212 222 212 217 221 219 229 220 220 218 214 207 206 207 203 207 204
331 283 291 295 307 272 257 212 95 71 52 41 32 26 20 12 2 357 357 356 348 348 5 112 175 197 205 163 179 189 191 217 218 209 205 215 222 225 220 227 219 219 217 210 211 217 222 220 207
315 0 316 303 306 273 343 233 75 72 49 35 22 17 12 9 7 5 2 2 1 356 344 333 1 145 168 190 167 181 192 213 209 213 219 212 216 221 219 220 221 225 220 221 221 221 227 223 214
321 316 287 274 263 273 243 244 63 32 12 13 14 13 12 10 9 11 12 12 10 5 0 354 342 0 159 149 159 168 189 199 206 218 218 207 228 230 219 213 223 223 224 227 220 222 221 212 213
344 316 284 258 242 246 248 217 43 16 348 357 8 12 11 12 15 20 22 22 24 25 23 21 13 13 95 140 158 162 178 190 198 205 204 212 226 227 222 222 222 227 222 222 228 224 216 212 214
358 350 295 209 187 262 355 55 39 13 14 11 8 6 10 13 19 24 26 28 32 34 36 42 40 42 57 111 132 148 164 175 181 189 197 197 199 199 207 207 211 214 219 228 218 222 227 211 217
340 350 2 288 277 36 36 45 41 42 28 21 21 16 15 14 18 26 30 32 36 41 44 50 55 58 63 68 93 127 149 155 164 174 184 191 190 194 195 200 203 208 208 213 217 215 215 222 224
342 22 309 275 231 252 101 100 120 18 20 18 17 16 14 11 13 21 29 33 38 43 46 52 59 63 67 72 82 93 110 132 144 155 164 174 181 185 187 194 197 198 209 202 207 205 210 216 216
34 356 203 176 294 178 97 68 7 357 1 4 9 10 9 12 13 18 24 30 37 44 50 56 61 63 67 73 78 83 94 109 122 129 141 150 159 164 176 178 184 183 191 195 200 200 195 195 197
10 11 352 293 303 327 131 71 357 355 357 358 1 4 2 5 12 16 19 26 32 42 50 54 62 67 70 75 79 88 95 100 104 114 119 124 136 142 153 164 170 175 174 182 188 190 191 197 199
21 4 9 324 31 22 49 61 4 0 1 359 358 359 359 1 5 15 17 20 27 34 44 52 59 65 67 73 79 83 89 94 101 105 109 115 118 124 129 139 150 154 160 161 172 169 172 184 190
Height
1476 1480 1486 1489 1489 1475 1451 1443 1440 1446 1449 1448 1450 1450 1449 1449 1447 1449 1442 1442 1442 1441 1443 1444 1449 1453 1456 1461 1464 1467 1470 1474 1479 1482 1486 1488 1491 1494 1494 1498 1500 1505 1507 1508 1510 1513 1517 1518 1520
1475 1478 1483 1483 1475 1463 1443 1441 1439 1447 1448 1451 1451 1452 1449 1445 1446 1445 1445 1441 1441 1441 1442 1444 1448 1452 1455 1458 1462 1465 1469 1472 1477 1481 1484 1487 1490 1493 1496 1498 1500 1504 1507 1509 1512 1514 1518 1519 1521
1473 1477 1480 1473 1459 1443 1440 1432 1434 1441 1446 1449 1449 1449 1446 1443 1445 1443 1441 1440 1441 1440 1441 1444 1447 1450 1454 1459 1461 1464 1467 1470 1475 1479 1483 1487 1489 1492 1495 1498 1500 1503 1507 1509 1511 1514 1519 1521 1522
1470 1478 1474 1458 1437 1437 1433 1432 1439 1439 1441 1444 1445 1445 1443 1442 1443 1442 1439 1440 1441 1440 1441 1443 1448 1451 1454 1457 1460 1463 1466 1469 1473 1477 1481 1485 1489 1492 1495 1497 1500 1502 1505 1508 1510 1510 1518 1521 1523
1467 1466 1456 1440 1430 1430 1433 1435 1435 1441 1440 1439 1442 1437 1437 1438 1439 1439 1439 1439 1440 1441 1442 1443 1445 1450 1454 1456 1459 1463 1465 1468 1472 1476 1480 1482 1486 1491 1494 1497 1499 1502 1504 1507 1509 1512 1515 1519 1523
1463 1458 1437 1418 1418 1427 1430 1432 1437 1436 1438 1439 1438 1434 1436 1437 1437 1438 1438 1439 1439 1441 1442 1443 1444 1448 1451 1456 1458 1462 1464 1467 1471 1474 1478 1482 1485 1488 1492 1496 1499 1501 1503 1507 1509 1512 1515 1519 1521
1451 1447 1420 1412 1415 1418 1426 1434 1432 1432 1432 1431 1434 1432 1433 1434 1432 1433 1435 1437 1438 1439 1439 1442 1444 1446 1449 1453 1457 1461 1464 1468 1470 1473 1478 1480 1484 1486 1490 1493 1497 1501 1503 1506 1509 1512 1515 1519 1522
1447 1439 1419 1408 1411 1408 1422 1428 1428 1427 1421 1428 1430 1423 1427 1431 1428 1430 1431 1433 1435 1436 1437 1439 1442 1444 1447 1451 1454 1458 1462 1466 1470 1473 1476 1478 1482 1485 1488 1491 1494 1498 1502 1505 1508 1511 1514 1515 1522
1449 1436 1402 1407 1412 1409 1417 1421 1422 1422 1421 1423 1423 1421 1422 1424 1423 1424 1426 1427 1429 1432 1434 1436 1438 1441 1446 1450 1453 1456 1459 1464 1468 1471 1474 1477 1480 1483 1486 1489 1491 1494 1500 1504 1506 1510 1513 1516 1520
1440 1428 1397 1407 1406 1409 1413 1416 1418 1417 1417 1419 1420 1419 1420 1420 1421 1421 1421 1425 1425 1429 1431 1434 1439 1440 1443 1446 1450 1454 1457 1460 1464 1468 1472 1475 1478 1481 1484 1486 1490 1493 1497 1500 1504 1508 1511 1514 1518
1423 1401 1405 1407 1412 1412 1414 1417 1417 1415 1411 1414 1416 1417 1418 1418 1419 1420 1420 1421 1422 1424 1428 1429 1434 1437 1443 1444 1447 1450 1455 1459 1462 1465 1468 1473 1475 1477 1481 1484 1487 1489 1493 1497 1500 1505 1509 1511 1514
1420 1411 1415 1412 1415 1413 1413 1416 1413 1413 1412 1414 1414 1415 1416 1415 1416 1419 1421 1421 1421 1422 1424 1427 1429 1432 1436 1442 1445 1446 1450 1455 1458 1462 1464 1467 1470 1475 1479 1481 1483 1487 1490 1494 1496 1501 1505 1508 1511
1410 1409 1409 1408 1409 1409 1411 1408 1410 1410 1412 1413 1413 1414 1415 1414 1414 1416 1419 1419 1421 1421 1422 1424 1427 1428 1432 1435 1439 1444 1447 1450 1453 1457 1462 1465 1467 1470 1474 1477 1481 1483 1487 1490 1493 1497 1500 1504 1507
1410 1409 1407 1407 1405 1405 1405 1405 1409 1408 1408 1412 1414 1414 1414 1416 1415 1415 1416 1417 1417 1420 1419 1420 1423 1426 1427 1431 1435 1439 1444 1447 1450 1454 1458 1461 1465 1466 1470 1474 1478 1481 1484 1488 1490 1493 1496 1500 1504
1407 1407 1404 1401 1399 1399 1402 1396 1396 1402 1406 1413 1415 1415 1415 1415 1415 1415 1416 1415 1416 1417 1418 1418 1418 1423 1425 1426 1431 1435 1440 1444 1447 1450 1454 1458 1461 1464 1466 1470 1474 1477 1480 1484 1487 1489 1493 1496 1499
1401 1400 1398 1388 1390 1390 1397 1389 1403 1405 1408 1411 1413 1415 1415 1416 1417 1415 1415 1416 1416 1415 1416 1415 1415 1417 1421 1423 1426 1429 1433 1439 1443 1447 1450 1453 1456 1459 1463 1465 1470 1473 1477 1480 1483 1486 1489 1491 1493
1397 1392 1385 1380 1385 1387 1389 1387 1405 1407 1409 1411 1415 1418 1419 1418 1418 1418 1416 1416 1415 1414 1413 1412 1412 1417 1416 1420 1420 1425 1429 1433 1437 1441 1446 1448 1452 1455 1458 1462 1465 1469 1472 1475 1478 1481 1483 1486 1487
1381 1381 1381 1382 1384 1387 1389 1389 1402 1409 1413 1416 1419 1422 1423 1422 1420 1418 1417 1416 1414 1412 1411 1410 1410 1413 1410 1415 1416 1421 1424 1428 1432 1436 1440 1444 1448 1451 1453 1457 1461 1464 1468 1471 1474 1478 1480 1482 1485
1401 1397 1394 1387 1388 1393 1390 1390 1405 1417 1421 1423 1427 1427 1428 1427 1424 1422 1419 1416 1412 1411 1411 1408 1409 1408 1408 1409 1412 1415 1419 1424 1428 1432 1434 1439 1443 1447 1449 1453 1456 1460 1464 1469 1473 1475 1478 1481 1484
1401 1397 1390 1385 1390 1396 1397 1405 1427 1431 1437 1437 1437 1436 1435 1432 1428 1423 1420 1417 1415 1411 1407 1408 1405 1408 1406 1405 1407 1410 1416 1422 1425 1428 1431 1435 1439 1443 1445 1450 1453 1456 1461 1466 1470 1474 1476 1481 1483
1407 1404 1395 1399 1399 1396 1395 1397 1423 1439 1442 1443 1443 1444 1441 1437 1432 1427 1423 1419 1416 1412 1410 1409 1405 1403 1403 1396 1398 1406 1414 1420 1423 1425 1429 1432 1434 1438 1442 1445 1449 1452 1457 1462 1467 1471 1474 1477 1480
1413 1408 1410 1407 1404 1391 1387 1375 1427 1437 1444 1448 1451 1449 1447 1442 1437 1431 1426 1422 1418 1415 1410 1407 1406 1404 1403 1403 1398 1404 1408 1418 1421 1423 1425 1428 1431 1434 1438 1442 1445 1451 1454 1458 1463 1468 1471 1473 1478
1415 1417 1413 1407 1404 1400 1391 1392 1441 1440 1449 1453 1457 1456 1452 1447 1441 1435 1430 1426 1422 1418 1414 1410 1406 1402 1399 1394 1395 1398 1408 1414 1419 1422 1423 1426 1430 1432 1434 1439 1441 1445 1450 1454 1456 1463 1467 1470 1475
1425 1411 1401 1399 1400 1399 1382 1377 1458 1464 1471 1465 1463 1461 1457 1451 1446 1441 1436 1430 1425 1421 1417 1413 1410 1407 1402 1398 1399 1400 1406 1411 1416 1420 1421 1424 1427 1431 1433 1434 1439 1442 1447 1451 1451 1456 1462 1465 1471
1428 1415 1388 1382 1390 1375 1401 1417 1478 1477 1477 1474 1469 1466 1461 1456 1450 1444 1439 1434 1429 1424 1420 1415 1412 1409 1406 1407 1401 1398 1404 1408 1413 1418 1422 1422 1424 1427 1429 1430 1434 1438 1442 1445 1450 1454 1457 1460 1466
1440 1436 1430 1406 1366 1380 1432 1463 1479 1481 1480 1477 1474 1470 1464 1460 1455 1450 1445 1440 1435 1429 1425 1420 1416 1413 1410 1406 1404 1403 1404 1406 1411 1415 1419 1422 1422 1424 1427 1429 1431 1435 1440 1442 1447 1448 1452 1456 1462
1459 1453 1465 1455 1423 1411 1456 1475 1475 1480 1480 1478 1475 1471 1468 1463 1459 1454 1449 1444 1439 1434 1430 1425 1421 1418 1415 1412 1410 1407 1405 1406 1409 1412 1416 1420 1422 1423 1427 1427 1429 1432 1437 1441 1444 1447 1450 1453 1459
1479 1477 1460 1452 1425 1394 1456 1475 1484 1484 1483 1481 1478 1475 1472 1468 1464 1459 1454 1450 1446 1441 1436 1432 1426 1422 1419 1416 1413 1412 1411 1413 1416 1414 1416 1419 1422 1422 1424 1426 1428 1430 1434 1438 1442 1445 1447 1452 1455
1481 1481 1479 1484 1471 1437 1435 1483 1494 1491 1488 1485 1483 1479 1475 1472 1468 1463 1458 1454 1450 1445 1441 1437 1433 1429 1426 1423 1421 1420 1420 1420 1417 1420 1421 1420 1422 1421 1424 1424 1427 1430 1431 1435 1440 1442 1446 1449 1453
1495 1490 1485 1472 1474 1474 1465 1500 1498 1494 1491 1488 1484 1480 1478 1475 1469 1463 1460 1457 1452 1448 1445 1442 1439 1435 1433 1430 1428 1427 1426 1423 1424 1425 1425 1426 1425 1423 1426 1427 1428 1430 1432 1434 1440 1439 1441 1447 1451